Shaw Air Force Base, SC

4:47 PM EDT on September 29, 2016 (GMT -0400)
Shaw Air Force Base

Weather History for KSSC - February, 2013

Change the Weather History Date:

Sunday, February 17, 2013

  Actual Average Record
Temperature  
Mean Temperature 35 °F -  
Max Temperature 45 °F 58 °F 75 °F (1998)
Min Temperature 25 °F 36 °F 23 °F (2007)
Degree Days  
Heating Degree Days 30    
Moisture  
Dew Point 10 °F    
Average Humidity 40    
Maximum Humidity 70    
Minimum Humidity 18    
Precipitation  
Precipitation 0.00 in - - ()
Sea Level Pressure  
Sea Level Pressure 30.18 in    
Wind  
Wind Speed 10 mph (WNW)    
Max Wind Speed 22 mph    
Max Gust Speed 28 mph    
Visibility 10 miles    
Events      
Averages and records for this station are not official NWS values.
T = Trace of Precipitation, MM = Missing Value Source: NWS Daily Summary

Daily Weather History Graph

Daily Weather History Graph

Search for Another Location

Airport or City:

Trip Planner

Search our weather history database for the weather conditions in past years. The results will help you decide how hot, cold, wet, or windy it might be!

Date:

Astronomy

Feb. 17, 2013 Rise Set
Actual Time 7:04 AM EST 6:08 PM EST
Civil Twilight 6:38 AM EST 6:33 PM EST
Nautical Twilight 6:09 AM EST 7:02 PM EST
Astronomical Twilight 5:40 AM EST 7:31 PM EST
Moon 11:17 AM EST (2/17) 12:41 AM EST (2/17)
Length of Visible Light 11h 54m
Length of Day
11h 03m
Waxing Crescent, 49% of the Moon is Illuminated
Feb 17
Waxing Crescent
Feb 17
First Quarter
Feb 25
Full
Mar 4
Last Quarter
Mar 11
New

Hourly Weather History & Observations

Time (EST) Temp. Windchill Dew Point Humidity Pressure Visibility Wind Dir Wind Speed Gust Speed Precip Events Conditions
12:58 AM 30.6 °F 23.8 °F 21.9 °F 70% 30.04 in 10.0 mi WNW 6.9 mph - N/A   Partly Cloudy
1:58 AM 29.8 °F 21.5 °F 18.9 °F 64% 30.06 in 10.0 mi WNW 9.2 mph - N/A   Clear
2:58 AM 29.1 °F 20.6 °F 16.9 °F 60% 30.07 in 10.0 mi NW 9.2 mph - N/A   Clear
3:58 AM 27.3 °F 19.9 °F 16.5 °F 64% 30.08 in 10.0 mi WNW 6.9 mph - N/A   Clear
4:58 AM 26.8 °F 18.5 °F 16.9 °F 66% 30.09 in 10.0 mi West 8.1 mph - N/A   Clear
5:58 AM 26.2 °F 17.8 °F 16.7 °F 67% 30.12 in 10.0 mi West 8.1 mph - N/A   Clear
6:58 AM 25.3 °F 17.6 °F 16.0 °F 68% 30.15 in 10.0 mi West 6.9 mph - N/A   Clear
7:58 AM 26.4 °F 18.0 °F 16.7 °F 67% 30.19 in 10.0 mi West 8.1 mph - N/A   Clear
8:58 AM 29.8 °F 23.9 °F 16.2 °F 57% 30.22 in 10.0 mi WNW 5.8 mph - N/A   Clear
9:58 AM 33.6 °F 23.7 °F 10.8 °F 39% 30.21 in 10.0 mi WNW 15.0 mph 24.2 mph N/A   Clear
10:58 AM 36.1 °F 26.2 °F 7.0 °F 30% 30.22 in 10.0 mi West 17.3 mph 24.2 mph N/A   Clear
11:21 AM 37.4 °F 27.8 °F 6.8 °F 28% 30.21 in 10.0 mi NW 17.3 mph 27.6 mph N/A   Clear
11:58 AM 38.7 °F 28.3 °F 5.7 °F 25% 30.22 in 10.0 mi West 21.9 mph 27.6 mph N/A   Clear
12:10 PM 39.2 °F 30.2 °F 5.0 °F 24% 30.20 in 10.0 mi NW 17.3 mph 24.2 mph N/A   Clear
12:58 PM 41.4 °F 33.3 °F 4.3 °F 22% 30.20 in 10.0 mi NW 16.1 mph 25.3 mph N/A   Clear
1:58 PM 43.2 °F 37.4 °F 2.8 °F 19% 30.18 in 10.0 mi WNW 10.4 mph 19.6 mph N/A   Clear
2:25 PM 44.6 °F 37.8 °F 5.0 °F 20% 30.17 in 10.0 mi West 15.0 mph 24.2 mph N/A   Clear
2:58 PM 44.6 °F 38.4 °F 3.6 °F 18% 30.18 in 10.0 mi WNW 12.7 mph - N/A   Clear
3:35 PM 44.6 °F 38.1 °F 5.0 °F 20% 30.17 in 10.0 mi WSW 13.8 mph - N/A   Clear
3:45 PM 44.6 °F 38.4 °F 3.2 °F 18% 30.17 in 10.0 mi West 12.7 mph 21.9 mph N/A   Clear
3:46 PM 44.6 °F 38.4 °F 3.2 °F 18% 30.17 in 10.0 mi West 12.7 mph 21.9 mph N/A   Clear
3:47 PM 44.6 °F 38.8 °F 3.2 °F 18% 30.17 in 10.0 mi WNW 11.5 mph 21.9 mph N/A   Clear
3:58 PM 44.8 °F 38.3 °F 4.1 °F 19% 30.18 in 10.0 mi West 13.8 mph 20.7 mph N/A   Clear
4:58 PM 45.0 °F 39.7 °F 4.5 °F 19% 30.18 in 10.0 mi West 10.4 mph - N/A   Clear
5:58 PM 42.3 °F 37.9 °F 5.5 °F 22% 30.20 in 10.0 mi West 6.9 mph - N/A   Clear
6:58 PM 38.7 °F - 10.4 °F 31% 30.22 in 10.0 mi Calm Calm - N/A   Clear
7:58 PM 34.2 °F - 15.3 °F 46% 30.25 in 10.0 mi NNE 2.3 mph - N/A   Clear
8:58 PM 27.7 °F - 14.9 °F 59% 30.25 in 10.0 mi WNW 1.2 mph - N/A   Clear
9:58 PM 27.1 °F 23.2 °F 16.0 °F 63% 30.27 in 10.0 mi North 3.5 mph - N/A   Clear
10:58 PM 26.4 °F - 16.9 °F 67% 30.30 in 10.0 mi NW 1.2 mph - N/A   Clear